FW9066 Weather Reports


Display with metric or nautical units.
time (UTC)temp
F
wind
direction
speed
MPH
gust
MPH
rain 1hr
in
rain 24hr
in
rain mn
in
humidity
%
barometer
mb
20260906090005 68 107 0.0 0.0 0.00 0.00 0.00 97 1017.7
20260906084500 68 107 0.0 0.0 0.00 0.00 0.00 97 1017.7
20260906083000 68 107 0.0 0.0 0.00 0.00 0.00 98 1017.7
20260906080003 68 107 0.0 0.0 0.00 0.00 0.00 98 1017.9
20260906073000 68 105 0.0 0.0 0.00 0.00 0.00 97 1017.4
20260906071500 68 105 0.0 0.0 0.00 0.00 0.00 97 1017.4
20260906070002 68 105 0.0 0.0 0.00 0.00 0.00 97 1017.5
20260906064500 68 105 0.0 0.0 0.00 0.00 0.00 97 1017.7
20260906063000 68 105 0.0 0.0 0.00 0.00 0.00 97 1017.8
20260906061500 68 105 0.0 0.0 0.00 0.00 0.00 97 1017.7
20260906060002 68 105 0.0 0.0 0.00 0.00 0.00 97 1017.8
20260906052959 68 103 0.0 0.0 0.00 0.00 0.00 97 1018.5
20260906051500 68 103 0.0 0.0 0.00 0.00 0.00 97 1018.7
20260906050004 69 103 0.0 0.0 0.00 0.00 0.00 97 1018.8
20260906044503 69 103 0.0 0.0 0.00 0.00 0.00 97 1019.0
20260906043003 69 103 0.0 0.0 0.00 0.00 0.00 97 1018.8
20260906041503 69 103 0.0 0.0 0.00 0.00 0.00 97 1018.7
20260906040006 69 102 0.0 0.0 0.00 0.00 0.00 96 1018.8
20260906033004 70 103 0.0 0.0 0.00 0.00 0.00 96 1018.6
20260906031502 70 103 0.0 0.0 0.00 0.00 0.00 96 1018.7
20260906030006 70 103 0.0 0.0 0.00 0.00 0.00 96 1018.6
20260906024503 70 89 0.0 0.0 0.00 0.00 0.00 95 1018.3
20260906023004 70 333 0.0 0.0 0.00 0.00 0.00 96 1018.7
20260906020005 71 278 0.0 0.0 0.00 0.00 0.00 95 1018.4
20260906014504 71 277 0.0 0.0 0.00 0.00 0.00 95 1018.2
20260906013004 71 277 0.0 0.0 0.00 0.00 0.00 94 1018.0
20260906011504 72 277 0.0 0.0 0.00 0.00 0.00 93 1018.0
20260906010005 72 279 0.0 0.0 0.00 0.00 0.00 93 1017.8
20260906003003 73 279 0.0 0.0 0.00 0.00 0.00 92 1017.8
20260906001504 74 279 0.0 0.0 0.00 0.00 0.00 91 1017.6
20260906000005 75 279 0.0 0.0 0.00 0.00 0.00 90 1017.5
20260905234503 77 279 0.0 0.0 0.00 0.00 0.00 87 1017.5
20260905233005 80 280 0.0 0.0 0.00 0.00 0.00 83 1017.4
20260905231503 81 280 0.0 0.0 0.00 0.00 0.00 80 1017.2
20260905230008 80 280 0.0 0.0 0.00 0.00 0.00 83 1017.1
20260905224504 78 297 0.0 0.0 0.00 0.00 0.00 87 1017.2
20260905223004 77 356 0.0 1.0 0.00 0.00 0.00 88 1017.3
20260905220006 79 357 0.0 1.0 0.00 0.00 0.00 84 1017.3
20260905214501 80 357 0.0 1.0 0.00 0.00 0.00 84 1017.4
20260905213003 80 70 0.0 1.0 0.00 0.00 0.00 84 1017.5
20260905211502 80 328 1.0 5.0 0.00 0.00 0.00 81 1017.7
20260905210004 78 322 0.0 2.0 0.00 0.00 0.00 84 1018.0
20260905204502 78 122 1.0 1.0 0.00 0.00 0.00 86 1018.0
20260905203003 77 122 1.0 1.0 0.00 0.00 0.00 86 1018.0
20260905201501 77 129 1.0 2.0 0.00 0.00 0.00 87 1018.2
20260905194502 78 146 1.0 2.0 0.00 0.00 0.00 83 1017.9
20260905193002 80 124 1.0 2.0 0.00 0.00 0.00 81 1017.8
20260905191502 82 122 1.0 2.0 0.00 0.00 0.00 78 1017.8
20260905190004 86 140 1.0 2.0 0.00 0.00 0.00 70 1018.0
20260905184513 87 287 1.0 3.0 0.00 0.00 0.00 65 1018.0
20260905183004 87 209 2.0 5.0 0.00 0.00 0.00 67 1018.0
20260905181501 88 190 1.0 7.0 0.00 0.00 0.00 66 1018.0
20260905180004 89 244 1.0 5.0 0.00 0.00 0.00 67 1018.5
20260905174501 89 141 2.0 5.0 0.00 0.00 0.00 67 1018.8
20260905173001 88 4 2.0 5.0 0.00 0.00 0.00 70 1018.8
20260905171502 87 179 1.0 3.0 0.00 0.00 0.00 72 1019.1
20260905170004 87 143 0.0 2.0 0.00 0.00 0.00 73 1019.1
20260905164501 86 147 1.0 2.0 0.00 0.00 0.00 74 1019.2
20260905161501 83 356 1.0 4.0 0.00 0.00 0.00 79 1019.8
20260905160003 83 15 1.0 4.0 0.00 0.00 0.00 79 1019.7
20260905154502 82 152 0.0 2.0 0.00 0.00 0.00 80 1019.6
20260905153002 81 147 0.0 2.0 0.00 0.00 0.00 82 1019.8
20260905150004 77 150 1.0 1.0 0.00 0.00 0.00 85 1020.1
20260905144502 77 53 0.0 1.0 0.00 0.00 0.00 86 1020.2
20260905143002 75 347 1.0 4.0 0.00 0.00 0.00 88 1020.3
20260905141502 74 124 0.0 0.0 0.00 0.00 0.00 91 1020.3
20260905140004 72 122 0.0 0.0 0.00 0.00 0.00 93 1020.3
20260905134500 70 122 0.0 0.0 0.00 0.00 0.00 96 1020.7
20260905133001 69 122 0.0 0.0 0.00 0.00 0.00 97 1021.0
20260905131501 68 122 0.0 0.0 0.00 0.00 0.00 98 1020.9
20260905130004 68 122 0.0 0.0 0.00 0.00 0.00 98 1021.1
20260905124501 67 122 0.0 0.0 0.00 0.00 0.00 98 1021.0
20260905123001 67 122 0.0 0.0 0.00 0.00 0.00 98 1020.7
20260905121500 66 122 0.0 0.0 0.00 0.00 0.00 98 1020.7
20260905120004 66 122 0.0 0.0 0.00 0.00 0.00 97 1020.6
20260905114501 66 122 0.0 0.0 0.00 0.00 0.00 97 1020.4
20260905113000 66 122 0.0 0.0 0.00 0.00 0.00 97 1020.3
20260905111501 67 122 0.0 0.0 0.00 0.00 0.00 97 1020.0
20260905110003 67 210 0.0 0.0 0.00 0.00 0.00 97 1019.7
20260905104501 66 211 0.0 0.0 0.00 0.00 0.00 97 1019.8
20260905103001 67 211 0.0 0.0 0.00 0.00 0.00 97 1019.5
20260905101500 67 211 0.0 0.0 0.00 0.00 0.00 97 1019.5
20260905100003 66 211 0.0 0.0 0.00 0.00 0.00 97 1019.7
20260905093000 67 210 0.0 0.0 0.00 0.00 0.00 97 1019.5
20260905091500 67 211 0.0 0.0 0.00 0.00 0.00 97 1019.4